DW6399 Weather Reports


time (UTC)temp
C
wind
direction
speed
KPH
gust
KPH
rain 1hr
cm
rain 24hr
cm
rain mn
cm
humidity
%
barometer
mb
20260904002704 9 0 0.0 0.0 0.10 0.25 0.10 94 998.2
20260904001804 9 0 0.0 0.0 0.10 0.25 0.10 94 998.2
20260904000925 9 344 0.0 3.2 0.08 0.23 0.08 94 998.2
20260904000025 9 344 0.0 3.2 0.05 0.20 0.05 94 998.3
20260903235404 9 0 0.0 0.0 0.05 0.20 0.05 94 998.3
20260903234525 9 344 0.0 1.6 0.03 0.18 0.03 94 998.3
20260903233604 9 0 0.0 0.0 0.03 0.18 0.03 94 998.3
20260903232704 9 0 0.0 0.0 0.00 0.15 0.00 94 998.3
20260903231804 9 344 0.0 1.6 0.00 0.15 0.00 94 998.3
20260903230904 9 344 0.0 3.2 0.00 0.15 0.00 94 998.4
20260903230025 9 0 0.0 0.0 0.00 0.15 0.00 94 998.4
20260903225404 9 344 0.0 3.2 0.00 0.15 0.00 94 998.5
20260903224504 9 344 0.0 4.8 0.00 0.15 0.00 94 998.4
20260903223604 9 296 0.0 6.4 0.00 0.15 0.00 94 998.4
20260903222704 9 158 0.0 3.2 0.00 0.15 0.00 94 998.5
20260903221804 9 158 0.0 4.8 0.00 0.15 0.00 94 998.5
20260903220904 9 180 0.0 8.0 0.00 0.15 0.00 94 998.5
20260903220004 9 213 1.6 9.7 0.00 0.15 0.00 94 998.5
20260903215404 9 259 0.0 4.8 0.00 0.15 0.00 94 998.5
20260903214525 9 259 0.0 3.2 0.00 0.15 0.00 94 998.4
20260903213625 10 259 0.0 3.2 0.00 0.15 0.00 94 998.4
20260903212704 10 214 1.6 8.0 0.00 0.15 0.00 94 998.5
20260903211804 10 155 1.6 4.8 0.00 0.15 0.00 94 998.6
20260903210904 10 155 0.0 1.6 0.00 0.15 0.00 94 998.6
20260903210006 10 155 0.0 3.2 0.00 0.15 0.00 94 998.7
20260903205425 10 155 1.6 4.8 0.03 0.15 0.15 94 998.7
20260903204504 10 155 0.0 1.6 0.03 0.15 0.15 93 998.7
20260903203625 10 155 0.0 1.6 0.03 0.15 0.15 93 998.7
20260903202704 10 155 0.0 3.2 0.03 0.15 0.15 93 998.7
20260903201825 10 155 1.6 4.8 0.03 0.15 0.15 93 998.7
20260903200925 10 0 0.0 0.0 0.03 0.15 0.15 93 998.9
20260903200004 10 0 0.0 0.0 0.03 0.15 0.15 93 999.0
20260903195404 10 0 0.0 0.0 0.00 0.13 0.13 92 999.1
20260903194504 10 155 0.0 1.6 0.03 0.13 0.13 92 999.2
20260903193604 10 155 0.0 3.2 0.03 0.13 0.13 92 999.1
20260903192704 10 155 0.0 3.2 0.03 0.13 0.13 92 999.1
20260903191804 10 155 4.8 12.9 0.03 0.13 0.13 92 999.3
20260903190904 11 167 3.2 9.7 0.03 0.13 0.13 91 999.5
20260903190006 11 321 1.6 4.8 0.05 0.13 0.13 91 999.3
20260903185404 11 324 3.2 8.0 0.08 0.13 0.13 91 999.3
20260903184504 11 324 6.4 8.0 0.08 0.10 0.10 91 999.3
20260903183604 11 320 8.0 12.9 0.10 0.10 0.10 91 999.3
20260903182704 11 304 3.2 8.0 0.10 0.10 0.10 90 999.4
20260903181804 11 302 1.6 4.8 0.10 0.10 0.10 90 999.4
20260903180904 11 303 4.8 11.3 0.10 0.10 0.10 89 999.5
20260903180004 11 295 3.2 9.7 0.08 0.08 0.08 88 999.5
20260903175404 11 291 4.8 9.7 0.05 0.05 0.08 86 999.5
20260903174504 12 272 3.2 9.7 0.03 0.03 0.03 85 999.5
20260903173604 12 286 3.2 9.7 0.00 0.00 0.00 83 999.5
20260903172725 13 247 4.8 19.3 0.00 0.00 0.00 81 999.4
20260903171804 13 260 3.2 11.3 0.00 0.00 0.00 82 999.3
20260903170904 13 230 3.2 11.3 0.00 0.00 0.00 83 999.2
20260903170004 13 256 8.0 16.1 0.00 0.00 0.00 84 999.1
20260903165404 12 276 8.0 16.1 0.00 0.00 0.00 85 998.9
20260903164504 12 156 0.0 3.2 0.00 0.00 0.00 89 998.5
20260903163604 12 0 0.0 0.0 0.00 0.00 0.00 89 998.5
20260903162725 12 0 0.0 0.0 0.00 0.00 0.00 88 998.5
20260903161804 12 156 0.0 1.6 0.00 0.00 0.00 87 998.5
20260903160904 13 156 0.0 1.6 0.00 0.00 0.00 86 998.5
20260903160004 14 156 0.0 1.6 0.00 0.00 0.00 84 998.5
20260903155404 15 156 0.0 1.6 0.00 0.00 0.00 81 998.6
20260903154504 15 156 1.6 3.2 0.00 0.00 0.00 79 998.6
20260903153604 16 157 1.6 4.8 0.00 0.00 0.00 76 998.6
20260903152704 16 157 3.2 8.0 0.00 0.00 0.00 75 998.7
20260903151804 16 157 3.2 8.0 0.00 0.00 0.00 76 998.8
20260903150904 16 161 4.8 9.7 0.00 0.00 0.00 74 998.8
20260903150004 16 162 3.2 8.0 0.00 0.00 0.00 72 998.8
20260903145404 16 156 4.8 14.5 0.00 0.00 0.00 73 998.7
20260903144504 16 171 4.8 11.3 0.00 0.00 0.00 72 998.7
20260903143604 17 199 3.2 6.4 0.00 0.00 0.00 71 998.7
20260903142704 17 155 4.8 12.9 0.00 0.00 0.00 71 998.8
20260903141804 17 147 6.4 12.9 0.00 0.00 0.00 70 998.8
20260903140904 17 161 4.8 11.3 0.00 0.00 0.00 70 998.9
20260903140004 16 167 1.6 8.0 0.00 0.00 0.00 69 998.9
20260903135403 17 168 3.2 9.7 0.00 0.00 0.00 70 998.9
20260903134504 17 167 6.4 9.7 0.00 0.00 0.00 68 998.9
20260903133625 17 170 6.4 14.5 0.00 0.00 0.00 70 999.0
20260903132725 17 157 8.0 17.7 0.00 0.00 0.00 71 999.1
20260903131825 17 153 4.8 11.3 0.00 0.00 0.00 71 999.1
20260903130925 17 185 4.8 11.3 0.00 0.00 0.00 70 999.1
20260903130004 17 168 6.4 12.9 0.00 0.00 0.00 73 999.2
20260903125425 17 155 8.0 16.1 0.00 0.00 0.00 75 999.3
20260903124504 17 168 4.8 11.3 0.00 0.00 0.00 73 999.3
20260903123625 17 176 4.8 17.7 0.00 0.00 0.00 74 999.4
20260903122704 17 160 8.0 17.7 0.00 0.00 0.00 74 999.5
20260903121825 17 140 9.7 17.7 0.00 0.00 0.00 75 999.4
20260903120904 17 145 9.7 17.7 0.00 0.00 0.00 76 999.6
20260903120004 17 169 6.4 14.5 0.00 0.00 0.00 77 999.7
20260903115404 16 161 6.4 17.7 0.00 0.00 0.00 78 999.7
20260903114504 16 157 9.7 19.3 0.00 0.00 0.00 77 999.8
20260903113604 16 164 8.0 16.1 0.00 0.00 0.00 80 999.8
20260903112704 16 157 9.7 17.7 0.00 0.00 0.00 81 999.9
20260903111804 16 160 9.7 24.1 0.00 0.00 0.00 81 999.9
20260903110904 16 164 11.3 19.3 0.00 0.00 0.00 82 999.9
20260903110004 15 167 9.7 17.7 0.00 0.00 0.00 83 1000.0
20260903105404 15 167 9.7 17.7 0.00 0.00 0.00 82 1000.0
20260903104524 15 171 9.7 19.3 0.00 0.00 0.00 82 1000.0
20260903103604 15 167 9.7 22.5 0.00 0.00 0.00 82 1000.1
20260903102725 15 166 11.3 20.9 0.00 0.00 0.00 83 1000.1
20260903101804 15 164 11.3 24.1 0.00 0.00 0.00 84 1000.2
20260903100925 15 169 9.7 24.1 0.00 0.00 0.00 85 1000.1
20260903100004 15 185 8.0 19.3 0.00 0.00 0.00 84 1000.1
20260903095404 15 175 9.7 19.3 0.00 0.00 0.00 84 1000.2
20260903094504 16 175 8.0 19.3 0.00 0.00 0.00 84 1000.1
20260903093604 16 168 11.3 22.5 0.00 0.00 0.00 83 1000.0
20260903092704 16 174 8.0 17.7 0.00 0.00 0.00 83 1000.0
20260903091804 16 167 6.4 17.7 0.00 0.00 0.00 84 1000.0
20260903090904 16 168 6.4 14.5 0.00 0.00 0.00 84 1000.0
20260903090004 16 170 8.0 14.5 0.00 0.00 0.00 85 1000.0
20260903085403 16 161 9.7 16.1 0.00 0.00 0.00 85 1000.1
20260903084525 16 166 9.7 17.7 0.00 0.00 0.00 85 1000.1
20260903083604 15 166 8.0 14.5 0.00 0.00 0.00 86 1000.1
20260903082704 15 166 11.3 20.9 0.00 0.00 0.00 85 1000.2
20260903081804 15 162 9.7 22.5 0.00 0.00 0.00 86 1000.2
20260903080903 15 160 9.7 14.5 0.00 0.00 0.00 87 1000.2
20260903080025 15 164 9.7 17.7 0.00 0.00 0.00 87 1000.2
20260903075403 15 157 11.3 20.9 0.00 0.00 0.00 88 1000.2
20260903074504 15 157 9.7 19.3 0.00 0.00 0.00 89 1000.2
20260903073604 15 163 9.7 19.3 0.00 0.00 0.00 90 1000.3
20260903072703 15 156 9.7 17.7 0.00 0.00 0.00 93 1000.3
20260903071803 14 162 8.0 17.7 0.00 0.00 0.00 97 1000.4
20260903070904 13 159 4.8 12.9 0.00 0.00 0.00 97 1000.4
20260903070004 13 165 6.4 14.5 0.00 0.00 0.00 97 1000.4
20260903065404 12 155 6.4 14.5 0.00 0.00 0.00 97 1000.5
20260903064503 12 127 4.8 9.7 0.00 0.00 0.00 97 1000.4
20260903063604 12 133 4.8 9.7 0.00 0.00 0.00 97 1000.3
20260903062703 11 116 3.2 6.4 0.00 0.00 0.00 97 1000.4
20260903061804 11 127 3.2 8.0 0.00 0.00 0.00 97 1000.4
20260903060904 10 134 3.2 6.4 0.00 0.00 0.00 97 1000.5
20260903060004 10 134 3.2 6.4 0.00 0.00 0.00 97 1000.5
20260903055403 10 154 3.2 6.4 0.00 0.00 0.00 96 1000.6
20260903054525 9 139 3.2 8.0 0.00 0.00 0.00 96 1000.7
20260903053625 8 125 1.6 4.8 0.00 0.00 0.00 97 1000.6
20260903052704 8 125 1.6 4.8 0.00 0.00 0.00 96 1000.7
20260903051804 7 125 1.6 4.8 0.00 0.00 0.00 96 1000.7
20260903050903 7 123 1.6 4.8 0.00 0.00 0.00 96 1000.8
20260903050004 7 278 0.0 4.8 0.00 0.00 0.00 96 1000.6
20260903045404 7 0 0.0 0.0 0.00 0.00 0.00 96 1000.7
20260903044504 6 0 0.0 0.0 0.00 0.00 0.00 96 1000.7
20260903043624 6 278 0.0 3.2 0.00 0.00 0.00 96 1000.8
20260903042725 6 0 0.0 0.0 0.00 0.00 0.00 95 1000.8
20260903041803 6 278 0.0 3.2 0.00 0.00 0.00 95 1000.9
20260903040904 6 0 0.0 0.0 0.00 0.00 0.00 95 1000.9
20260903040025 6 0 0.0 0.0 0.00 0.00 0.00 95 1000.9
20260903035403 7 0 0.0 0.0 0.00 0.00 0.00 96 1000.9
20260903034525 7 0 0.0 0.0 0.00 0.00 0.00 95 1001.0
20260903033603 7 0 0.0 0.0 0.00 0.00 0.00 96 1001.0
20260903032703 7 0 0.0 0.0 0.00 0.00 0.00 96 1001.1
20260903031803 7 278 0.0 3.2 0.00 0.00 0.00 96 1001.0
20260903030903 7 0 0.0 0.0 0.00 0.00 0.00 96 1001.1
20260903030025 7 278 0.0 1.6 0.00 0.00 0.00 96 1001.1
20260903025403 7 0 0.0 0.0 0.00 0.00 0.00 95 1001.1
20260903024503 7 278 0.0 1.6 0.00 0.00 0.00 95 1001.1
20260903023603 7 278 0.0 3.2 0.00 0.00 0.00 95 1001.2
20260903022704 7 0 0.0 0.0 0.00 0.00 0.00 95 1001.3
20260903021803 7 0 0.0 0.0 0.00 0.00 0.00 95 1001.4
20260903020904 7 278 0.0 3.2 0.00 0.00 0.00 95 1001.4
20260903020025 7 0 0.0 0.0 0.00 0.00 0.00 96 1001.3
20260903015404 7 0 0.0 0.0 0.00 0.00 0.00 96 1001.3
20260903014503 7 0 0.0 0.0 0.00 0.00 0.00 96 1001.4
20260903013603 7 278 0.0 3.2 0.00 0.00 0.00 96 1001.4
20260903012703 7 278 1.6 3.2 0.00 0.00 0.00 96 1001.3
20260903011804 7 0 0.0 0.0 0.00 0.00 0.00 96 1001.4
20260903010904 7 0 0.0 0.0 0.00 0.00 0.00 96 1001.5
20260903010025 7 0 0.0 0.0 0.00 0.00 0.00 95 1001.5
20260903005425 7 278 0.0 4.8 0.00 0.00 0.00 95 1001.6
20260903004504 7 278 1.6 4.8 0.00 0.00 0.00 96 1001.5
20260903003603 7 0 0.0 0.0 0.00 0.00 0.00 95 1001.6